SP5EB-3 Weather Reports


time (UTC)temp
C
wind
direction
speed
KPH
gust
KPH
rain 1hr
cm
rain 24hr
cm
rain mn
cm
humidity
%
barometer
mb
20260905211154 13 0 0.0 0.0 0.00 0.00 0.00 99 1012.9
20260905210647 13 0 0.0 0.0 0.00 0.00 0.00 99 1012.9
20260905210139 14 0 0.0 0.0 0.00 0.00 0.00 99 1012.8
20260905205631 14 0 0.0 0.0 0.00 0.00 0.00 31 1013.0
20260905205123 14 0 0.0 0.0 0.00 0.00 0.00 1 1012.7
20260905204616 14 0 0.0 0.0 0.00 0.00 0.00 1 1012.7
20260905204108 15 0 0.0 0.0 0.00 0.00 0.00 1 1012.5
20260905203601 15 0 0.0 0.0 0.00 0.00 0.00 1 1012.7
20260905203052 15 0 0.0 0.0 0.00 0.00 0.00 1 1012.4
20260905202545 15 0 0.0 0.0 0.00 0.00 0.00 1 1012.3
20260905201530 15 0 0.0 0.0 0.00 0.00 0.00 1 1012.3
20260905200514 15 0 0.0 0.0 0.00 0.00 0.00 1 1012.3
20260905195458 15 0 0.0 0.0 0.00 0.00 0.00 1 1012.3
20260905194950 15 0 0.0 0.0 0.00 0.00 0.00 1 1012.2
20260905193935 15 0 0.0 0.0 0.00 0.00 0.00 1 1012.1
20260905191904 15 0 0.0 0.0 0.00 0.00 0.00 1 1012.1
20260905191356 15 0 0.0 0.0 0.00 0.00 0.00 1 1012.3
20260905190848 15 0 0.0 0.0 0.00 0.00 0.00 1 1012.4
20260905190341 15 0 0.0 0.0 0.00 0.00 0.00 1 1012.1
20260905185832 15 0 0.0 0.0 0.00 0.00 0.00 1 1012.3
20260905185325 15 0 0.0 0.0 0.00 0.00 0.00 1 1012.1
20260905184817 15 0 0.0 0.0 0.00 0.00 0.00 1 1012.1
20260905183802 15 0 0.0 0.0 0.00 0.00 0.00 1 1012.1
20260905182238 15 0 0.0 0.0 0.00 0.00 0.00 9 1012.4
20260905181730 15 0 0.0 0.0 0.00 0.00 0.00 5 1012.5
20260905181223 15 0 0.0 0.0 0.00 0.00 0.00 1 1012.5
20260905180715 15 0 0.0 0.0 0.00 0.00 0.00 1 1012.5
20260905175659 15 0 0.0 0.0 0.00 0.00 0.00 1 1012.4
20260905175152 15 0 0.0 0.0 0.00 0.00 0.00 1 1012.3
20260905174644 15 0 0.0 0.0 0.00 0.00 0.00 1 1012.3
20260905174136 15 0 0.0 0.0 0.00 0.00 0.00 1 1012.2
20260905173628 15 0 0.0 0.0 0.00 0.00 0.00 99 1012.1
20260905173120 16 0 0.0 0.0 0.00 0.00 0.00 99 1012.2
20260905172612 16 0 0.0 0.0 0.00 0.00 0.00 99 1012.1
20260905172104 16 0 0.0 0.0 0.00 0.00 0.00 99 1012.0
20260905171556 16 0 0.0 0.0 0.00 0.00 0.00 99 1012.0
20260905171048 16 0 0.0 0.0 0.00 0.00 0.00 99 1012.0
20260905170540 16 0 0.0 0.0 0.00 0.00 0.00 99 1012.1
20260905170032 16 0 0.0 0.0 0.00 0.00 0.00 99 1012.0
20260905165524 16 0 0.0 0.0 0.00 0.00 0.00 99 1012.0
20260905165016 16 0 0.0 0.0 0.00 0.00 0.00 99 1012.2
20260905164508 16 0 0.0 0.0 0.00 0.00 0.00 99 1012.1
20260905164000 16 0 0.0 0.0 0.00 0.00 0.00 99 1012.1
20260905163452 16 0 0.0 0.0 0.00 0.00 0.00 99 1012.1
20260905162944 17 0 0.0 0.0 0.00 0.00 0.00 99 1012.2
20260905162435 17 0 0.0 0.0 0.00 0.00 0.00 99 1012.1
20260905161927 17 0 0.0 0.0 0.00 0.00 0.00 99 1012.0
20260905161419 17 0 0.0 0.0 0.00 0.00 0.00 99 1012.0
20260905160403 17 0 0.0 0.0 0.00 0.00 0.00 99 1011.8
20260905155855 17 0 0.0 0.0 0.00 0.00 0.00 99 1011.8
20260905155346 16 0 0.0 0.0 0.00 0.00 0.00 99 1011.8
20260905154838 16 0 0.0 0.0 0.00 0.00 0.00 99 1011.7
20260905154330 16 0 0.0 0.0 0.00 0.00 0.00 99 1011.7
20260905153822 15 0 0.0 0.0 0.00 0.00 0.00 99 1011.7
20260905153315 16 0 0.0 0.0 0.00 0.00 0.00 99 1011.8
20260905152807 16 0 0.0 0.0 0.00 0.00 0.00 99 1011.9
20260905152258 16 0 0.0 0.0 0.00 0.00 0.00 99 1011.9
20260905151750 16 0 0.0 0.0 0.00 0.00 0.00 99 1012.0
20260905151243 16 0 0.0 0.0 0.00 0.00 0.00 99 1012.2
20260905150735 17 0 0.0 0.0 0.00 0.00 0.00 99 1012.1
20260905150227 17 0 0.0 0.0 0.00 0.00 0.00 99 1012.2
20260905145719 18 0 0.0 0.0 0.00 0.00 0.00 99 1012.5
20260905145209 18 0 0.0 0.0 0.00 0.00 0.00 99 1012.3
20260905144701 19 0 0.0 0.0 0.00 0.00 0.00 99 1012.1
20260905144153 20 0 0.0 0.0 0.00 0.00 0.00 99 1011.8
20260905143645 20 0 0.0 0.0 0.00 0.00 0.00 99 1011.6
20260905143136 20 0 0.0 0.0 0.00 0.00 0.00 99 1011.6
20260905142628 21 0 0.0 0.0 0.00 0.00 0.00 99 1011.7
20260905142118 21 0 0.0 0.0 0.00 0.00 0.00 99 1011.3
20260905141609 22 0 0.0 0.0 0.00 0.00 0.00 99 1011.3
20260905141100 22 0 0.0 0.0 0.00 0.00 0.00 99 1011.2
20260905140552 23 0 0.0 0.0 0.00 0.00 0.00 99 1011.2
20260905140043 23 0 0.0 0.0 0.00 0.00 0.00 99 1011.6
20260905135534 23 0 0.0 0.0 0.00 0.00 0.00 99 1011.3
20260905134515 22 0 0.0 0.0 0.00 0.00 0.00 99 1011.0
20260905134006 22 0 0.0 0.0 0.00 0.00 0.00 99 1011.2
20260905133457 22 0 0.0 0.0 0.00 0.00 0.00 99 1011.1
20260905132948 22 0 0.0 0.0 0.00 0.00 0.00 99 1011.2
20260905132439 21 0 0.0 0.0 0.00 0.00 0.00 99 1011.0
20260905131929 21 0 0.0 0.0 0.00 0.00 0.00 99 1011.3
20260905131421 21 0 0.0 0.0 0.00 0.00 0.00 99 1011.9
20260905130912 21 0 0.0 0.0 0.00 0.00 0.00 99 1011.1
20260905130404 21 0 0.0 0.0 0.00 0.00 0.00 99 1011.0
20260905125855 21 0 0.0 0.0 0.00 0.00 0.00 99 1011.1
20260905125347 21 0 0.0 0.0 0.00 0.00 0.00 99 1011.2
20260905124837 21 0 0.0 0.0 0.00 0.00 0.00 99 1011.2
20260905124518 20 0 0.0 0.0 0.00 0.00 0.00 99 1011.1
20260905124328 20 0 0.0 0.0 0.00 0.00 0.00 99 1011.1
20260905123312 20 0 0.0 0.0 0.00 0.00 0.00 99 1011.0
20260905122803 20 0 0.0 0.0 0.00 0.00 0.00 99 1011.1
20260905122255 20 0 0.0 0.0 0.00 0.00 0.00 99 1011.1
20260905121745 21 0 0.0 0.0 0.00 0.00 0.00 99 1011.0
20260905121237 21 0 0.0 0.0 0.00 0.00 0.00 99 1011.0
20260905120728 21 0 0.0 0.0 0.00 0.00 0.00 99 1011.1
20260905120219 21 0 0.0 0.0 0.00 0.00 0.00 99 1011.1
20260905115202 20 0 0.0 0.0 0.00 0.00 0.00 99 1011.0
20260905114653 20 0 0.0 0.0 0.00 0.00 0.00 99 1010.9
20260905114144 20 0 0.0 0.0 0.00 0.00 0.00 99 1011.0
20260905113636 20 0 0.0 0.0 0.00 0.00 0.00 99 1010.9
20260905113127 20 0 0.0 0.0 0.00 0.00 0.00 99 1010.9
20260905112619 20 0 0.0 0.0 0.00 0.00 0.00 99 1011.0
20260905112110 20 0 0.0 0.0 0.00 0.00 0.00 99 1011.0
20260905111052 20 0 0.0 0.0 0.00 0.00 0.00 99 1010.9
20260905110544 20 0 0.0 0.0 0.00 0.00 0.00 99 1010.8
20260905110035 20 0 0.0 0.0 0.00 0.00 0.00 99 1011.0
20260905105527 20 0 0.0 0.0 0.00 0.00 0.00 99 1011.3
20260905104509 20 0 0.0 0.0 0.00 0.00 0.00 99 1010.7
20260905104001 19 0 0.0 0.0 0.00 0.00 0.00 99 1010.7
20260905103453 19 0 0.0 0.0 0.00 0.00 0.00 99 1010.7
20260905102436 19 0 0.0 0.0 0.00 0.00 0.00 99 1010.5
20260905101928 19 0 0.0 0.0 0.00 0.00 0.00 99 1010.4
20260905101419 18 0 0.0 0.0 0.00 0.00 0.00 99 1010.3
20260905100910 18 0 0.0 0.0 0.00 0.00 0.00 99 1010.2
20260905100402 18 0 0.0 0.0 0.00 0.00 0.00 99 1010.3
20260905095854 18 0 0.0 0.0 0.00 0.00 0.00 99 1010.4
20260905095346 18 0 0.0 0.0 0.00 0.00 0.00 99 1010.2
20260905094838 18 0 0.0 0.0 0.00 0.00 0.00 99 1010.5
20260905094328 18 0 0.0 0.0 0.00 0.00 0.00 99 1010.3
20260905093312 17 0 0.0 0.0 0.00 0.00 0.00 99 1010.6
20260905092804 17 0 0.0 0.0 0.00 0.00 0.00 99 1010.3
20260905092256 17 0 0.0 0.0 0.00 0.00 0.00 99 1010.1
20260905091748 17 0 0.0 0.0 0.00 0.00 0.00 99 1010.1
20260905091239 17 0 0.0 0.0 0.00 0.00 0.00 99 1010.4
20260905090731 17 0 0.0 0.0 0.00 0.00 0.00 99 1010.1
20260905085207 17 0 0.0 0.0 0.00 0.00 0.00 99 1010.3
20260905084659 17 0 0.0 0.0 0.00 0.00 0.00 99 1010.0
20260905084150 17 0 0.0 0.0 0.00 0.00 0.00 99 1010.0
20260905083642 17 0 0.0 0.0 0.00 0.00 0.00 99 1010.2
20260905083134 17 0 0.0 0.0 0.00 0.00 0.00 99 1009.8
20260905082118 17 0 0.0 0.0 0.00 0.00 0.00 99 1009.8
20260905081610 17 0 0.0 0.0 0.00 0.00 0.00 99 1010.0
20260905081100 17 0 0.0 0.0 0.00 0.00 0.00 99 1009.5
20260905080553 17 0 0.0 0.0 0.00 0.00 0.00 99 1009.5
20260905080045 17 0 0.0 0.0 0.00 0.00 0.00 99 1009.8
20260905075537 17 0 0.0 0.0 0.00 0.00 0.00 99 1009.4
20260905075029 17 0 0.0 0.0 0.00 0.00 0.00 99 1009.5
20260905074521 17 0 0.0 0.0 0.00 0.00 0.00 99 1009.6
20260905074012 17 0 0.0 0.0 0.00 0.00 0.00 99 1009.4
20260905073504 17 0 0.0 0.0 0.00 0.00 0.00 99 1009.6
20260905072957 16 0 0.0 0.0 0.00 0.00 0.00 99 1009.4
20260905072448 16 0 0.0 0.0 0.00 0.00 0.00 99 1009.4
20260905071941 16 0 0.0 0.0 0.00 0.00 0.00 99 1009.5
20260905071433 16 0 0.0 0.0 0.00 0.00 0.00 99 1009.2
20260905070924 16 0 0.0 0.0 0.00 0.00 0.00 1 1009.4
20260905070416 16 0 0.0 0.0 0.00 0.00 0.00 1 1009.1
20260905065908 16 0 0.0 0.0 0.00 0.00 0.00 1 1009.4
20260905065400 16 0 0.0 0.0 0.00 0.00 0.00 1 1009.6
20260905064852 16 0 0.0 0.0 0.00 0.00 0.00 1 1008.8
20260905064344 16 0 0.0 0.0 0.00 0.00 0.00 1 1008.9
20260905064057 16 0 0.0 0.0 0.00 0.00 0.00 1 1008.5
20260905063835 16 0 0.0 0.0 0.00 0.00 0.00 1 1008.7
20260905063328 16 0 0.0 0.0 0.00 0.00 0.00 1 1008.5
20260905062820 16 0 0.0 0.0 0.00 0.00 0.00 1 1008.5
20260905062312 16 0 0.0 0.0 0.00 0.00 0.00 1 1008.5
20260905061804 16 0 0.0 0.0 0.00 0.00 0.00 1 1008.5
20260905060748 16 0 0.0 0.0 0.00 0.00 0.00 1 1008.3
20260905060240 16 0 0.0 0.0 0.00 0.00 0.00 1 1008.3
20260905055733 15 0 0.0 0.0 0.00 0.00 0.00 1 1008.3
20260905055225 15 0 0.0 0.0 0.00 0.00 0.00 1 1008.4
20260905054209 15 0 0.0 0.0 0.00 0.00 0.00 1 1008.1
20260905053153 15 0 0.0 0.0 0.00 0.00 0.00 1 1008.1
20260905052645 15 0 0.0 0.0 0.00 0.00 0.00 1 1008.3
20260905052137 15 0 0.0 0.0 0.00 0.00 0.00 1 1007.8
20260905051630 15 0 0.0 0.0 0.00 0.00 0.00 1 1007.8
20260905051122 15 0 0.0 0.0 0.00 0.00 0.00 1 1008.0
20260905050613 15 0 0.0 0.0 0.00 0.00 0.00 1 1007.8
20260905050106 15 0 0.0 0.0 0.00 0.00 0.00 1 1007.8
20260905045558 15 0 0.0 0.0 0.00 0.00 0.00 1 1007.7
20260905044543 15 0 0.0 0.0 0.00 0.00 0.00 1 1007.7
20260905044035 15 0 0.0 0.0 0.00 0.00 0.00 1 1007.6
20260905043526 15 0 0.0 0.0 0.00 0.00 0.00 1 1007.5
20260905043018 15 0 0.0 0.0 0.00 0.00 0.00 1 1007.5
20260905042511 16 0 0.0 0.0 0.00 0.00 0.00 1 1007.3
20260905042003 16 0 0.0 0.0 0.00 0.00 0.00 1 1007.3
20260905041456 16 0 0.0 0.0 0.00 0.00 0.00 99 1007.1
20260905040948 16 0 0.0 0.0 0.00 0.00 0.00 99 1007.1
20260905040439 16 0 0.0 0.0 0.00 0.00 0.00 99 1007.0
20260905035931 16 0 0.0 0.0 0.00 0.00 0.00 1 1006.9
20260905035423 16 0 0.0 0.0 0.00 0.00 0.00 99 1006.9
20260905034915 16 0 0.0 0.0 0.00 0.00 0.00 99 1006.8
20260905034407 16 0 0.0 0.0 0.00 0.00 0.00 41 1006.5
20260905033859 16 0 0.0 0.0 0.00 0.00 0.00 99 1006.3
20260905033351 16 0 0.0 0.0 0.00 0.00 0.00 99 1006.1
20260905032843 16 0 0.0 0.0 0.00 0.00 0.00 99 1006.1
20260905032335 16 0 0.0 0.0 0.00 0.00 0.00 99 1006.0
20260905031827 16 0 0.0 0.0 0.00 0.00 0.00 1 1005.8
20260905031319 16 0 0.0 0.0 0.00 0.00 0.00 1 1005.8
20260905030811 16 0 0.0 0.0 0.00 0.00 0.00 1 1005.7
20260905030302 16 0 0.0 0.0 0.00 0.00 0.00 1 1005.6
20260905025755 16 0 0.0 0.0 0.00 0.00 0.00 1 1005.9
20260905025247 16 0 0.0 0.0 0.00 0.00 0.00 1 1005.7
20260905024739 16 0 0.0 0.0 0.00 0.00 0.00 1 1005.9
20260905024231 16 0 0.0 0.0 0.00 0.00 0.00 38 1005.6
20260905023723 16 0 0.0 0.0 0.00 0.00 0.00 64 1005.4
20260905023214 16 0 0.0 0.0 0.00 0.00 0.00 99 1005.5
20260905022706 16 0 0.0 0.0 0.00 0.00 0.00 99 1005.6
20260905022158 16 0 0.0 0.0 0.00 0.00 0.00 99 1005.5
20260905021143 16 0 0.0 0.0 0.00 0.00 0.00 99 1005.8
20260905020635 16 0 0.0 0.0 0.00 0.00 0.00 99 1005.5
20260905020126 16 0 0.0 0.0 0.00 0.00 0.00 99 1005.4
20260905015618 16 0 0.0 0.0 0.00 0.00 0.00 99 1005.3
20260905015110 17 0 0.0 0.0 0.00 0.00 0.00 99 1005.2
20260905014602 17 0 0.0 0.0 0.00 0.00 0.00 99 1005.3
20260905014054 17 0 0.0 0.0 0.00 0.00 0.00 99 1004.8
20260905013546 17 0 0.0 0.0 0.00 0.00 0.00 99 1004.9
20260905013037 17 0 0.0 0.0 0.00 0.00 0.00 99 1005.1
20260905012529 17 0 0.0 0.0 0.00 0.00 0.00 99 1005.1
20260905012021 17 0 0.0 0.0 0.00 0.00 0.00 99 1005.1
20260905011514 17 0 0.0 0.0 0.00 0.00 0.00 99 1005.5
20260905011006 17 0 0.0 0.0 0.00 0.00 0.00 99 1005.1
20260905010458 17 0 0.0 0.0 0.00 0.00 0.00 99 1005.1
20260905005949 17 0 0.0 0.0 0.00 0.00 0.00 99 1004.8
20260905005441 17 0 0.0 0.0 0.00 0.00 0.00 99 1004.8
20260905004933 17 0 0.0 0.0 0.00 0.00 0.00 99 1004.5
20260905004425 17 0 0.0 0.0 0.00 0.00 0.00 99 1004.4
20260905003917 17 0 0.0 0.0 0.00 0.00 0.00 99 1004.3
20260905003409 17 0 0.0 0.0 0.00 0.00 0.00 1 1004.7
20260905002900 17 0 0.0 0.0 0.00 0.00 0.00 99 1004.2
20260905001844 17 0 0.0 0.0 0.00 0.00 0.00 99 1004.3
20260905001336 17 0 0.0 0.0 0.00 0.00 0.00 1 1004.3
20260905000828 17 0 0.0 0.0 0.00 0.00 0.00 99 1004.1
20260905000320 17 0 0.0 0.0 0.00 0.00 0.00 99 1004.1
20260904235811 17 0 0.0 0.0 0.00 0.00 0.00 99 1004.3
20260904235306 17 0 0.0 0.0 0.00 0.00 0.00 99 1004.2
20260904234755 17 0 0.0 0.0 0.00 0.00 0.00 1 1004.1
20260904234247 17 0 0.0 0.0 0.00 0.00 0.00 99 1004.1
20260904233231 17 0 0.0 0.0 0.00 0.00 0.00 1 1004.1
20260904232721 17 0 0.0 0.0 0.00 0.00 0.00 99 1004.1
20260904232214 17 0 0.0 0.0 0.00 0.00 0.00 1 1003.9
20260904231706 17 0 0.0 0.0 0.00 0.00 0.00 1 1003.8
20260904231158 17 0 0.0 0.0 0.00 0.00 0.00 1 1003.8
20260904230649 17 0 0.0 0.0 0.00 0.00 0.00 99 1003.8
20260904225124 17 0 0.0 0.0 0.00 0.00 0.00 59 1003.8
20260904224616 17 0 0.0 0.0 0.00 0.00 0.00 96 1003.8
20260904223600 17 0 0.0 0.0 0.00 0.00 0.00 78 1003.8
20260904223052 17 0 0.0 0.0 0.00 0.00 0.00 47 1003.1
20260904222543 17 0 0.0 0.0 0.00 0.00 0.00 8 1003.2
20260904222035 17 0 0.0 0.0 0.00 0.00 0.00 1 1003.0
20260904221527 17 0 0.0 0.0 0.00 0.00 0.00 1 1003.2
20260904221019 17 0 0.0 0.0 0.00 0.00 0.00 1 1003.4
20260904220003 17 0 0.0 0.0 0.00 0.00 0.00 99 1003.3
20260904215455 17 0 0.0 0.0 0.00 0.00 0.00 99 1003.5
20260904214946 17 0 0.0 0.0 0.00 0.00 0.00 99 1003.6
20260904214438 17 0 0.0 0.0 0.00 0.00 0.00 29 1003.6
20260904213930 17 0 0.0 0.0 0.00 0.00 0.00 1 1003.7
20260904213422 17 0 0.0 0.0 0.00 0.00 0.00 99 1003.6
20260904212914 17 0 0.0 0.0 0.00 0.00 0.00 99 1003.5
20260904212405 17 0 0.0 0.0 0.00 0.00 0.00 99 1003.1
20260904211857 17 0 0.0 0.0 0.00 0.00 0.00 99 1003.2